Starlink 11650

operational
NORAD ID: 63312 Int'l Des: 2025-057 Owner: SPXS Country: US Constellation: starlink
LEOCIRCULAR

About Starlink 11650

Description loading...

Live Position

Loading 3D Globe...

Upcoming Passes

Altitude History

Altitude vs Time

uPlot chart will show altitude changes over time

Two-Line Element Set

1 63312U 25057F 25352.16563159 .00121585 00000-0 93638-3 0 9991
2 63312 43.0005 36.1422 0001952 262.9222 97.1423 15.70861217 44382
Epoch: Dec 18, 2025 • Age: 12 hours

Current Status

Altitude 359.5 km
Velocity 7.69 km/s
Sub-Earth Point -18.44°S, 43.77°E
Launch Date Mar 18, 2025
Age 0.7 years
Type internet

Technical Details

Classification Payload
Mass 960.00 kg
Dry Mass 910.00 kg
Total Mass 960.00 kg
Length 0.30 m
Diameter 4.10 m
Span 29.00 m
Shape Box + pan
Manufacturer SPXS
Bus Type Starlink V2MD
Phase Status In Orbit
Owner/State SPXS/US

Large Constellations

Loading constellations...